Cincinnati, OH

10:48 AM EST on December 13, 2019 (GMT -0500)
Cincinnati Municipal-Lunken

Weather History for KLUK - September, 2019

Change the Weather History Date:

Wednesday, September 11, 2019

  Actual Average Record
Temperature  
Mean Temperature 80 °F -  
Max Temperature 91 °F 79 °F 94 °F (1983)
Min Temperature 69 °F 59 °F 33 °F (1996)
Cooling Degree Days 14    
Growing Degree Days 30 (Base 50)    
Moisture  
Dew Point 70 °F    
Average Humidity 82    
Maximum Humidity 100    
Minimum Humidity 48    
Precipitation  
Precipitation 0.00 in - - ()
Sea Level Pressure  
Sea Level Pressure 30.17 in    
Wind  
Wind Speed 2 mph ()    
Max Wind Speed 10 mph    
Max Gust Speed -    
Visibility 8.4 miles    
Events      
Averages and records for this station are not official NWS values.
T = Trace of Precipitation, MM = Missing Value Source: Averaged Metar Reports

Daily Weather History Graph

Daily Weather History Graph

Search for Another Location

Airport or City:

Astronomy

Sep. 11, 2019 Rise Set
Actual Time 7:15 AM EDT 7:52 PM EDT
Civil Twilight 6:48 AM EDT 8:19 PM EDT
Nautical Twilight 6:16 AM EDT 8:51 PM EDT
Astronomical Twilight 5:43 AM EDT 9:24 PM EDT
Moon 7:03 PM EDT (9/11) 4:38 AM EDT (9/11)
Length of Visible Light 13h 31m
Length of Day
12h 37m
Waxing Gibbous, 94% of the Moon is Illuminated
Sep 11
Waxing Gibbous
Sep 14
Full
Sep 21
Last Quarter
Sep 28
New
Oct 5
First Quarter

Hourly Weather History & Observations

Time (EDT) Temp. Heat Index Dew Point Humidity Pressure Visibility Wind Dir Wind Speed Gust Speed Precip Events Conditions
12:53 AM 71.1 °F - 70.0 °F 96% 30.17 in 8.0 mi Calm Calm - N/A   Clear
1:53 AM 70.0 °F - 70.0 °F 100% 30.17 in 7.0 mi Calm Calm - N/A   Clear
2:00 AM 69.1 °F - 69.1 °F 100% 30.18 in 1.5 mi Calm Calm - N/A   Clear
2:12 AM 70.0 °F - 70.0 °F 100% 30.18 in 4.0 mi Calm Calm - N/A   Clear
2:53 AM 69.1 °F - 69.1 °F 100% 30.17 in 6.0 mi Calm Calm - N/A   Clear
3:53 AM 69.1 °F - 68.0 °F 96% 30.17 in 8.0 mi Calm Calm - N/A   Clear
4:53 AM 70.0 °F - 70.0 °F 100% 30.18 in 8.0 mi Calm Calm - N/A   Partly Cloudy
5:53 AM 71.1 °F - 70.0 °F 96% 30.19 in 7.0 mi ENE 3.5 mph - N/A   Clear
6:35 AM 71.1 °F - 70.0 °F 96% 30.21 in 7.0 mi Calm Calm - N/A   Partly Cloudy
6:53 AM 71.1 °F - 70.0 °F 96% 30.20 in 7.0 mi Calm Calm - N/A   Clear
7:53 AM 71.1 °F - 71.1 °F 100% 30.22 in 7.0 mi WSW 3.5 mph - N/A   Clear
8:53 AM 73.9 °F - 72.0 °F 93% 30.23 in 8.0 mi SSW 5.8 mph - N/A   Clear
9:53 AM 77.0 °F - 71.1 °F 82% 30.23 in 10.0 mi South 5.8 mph - N/A   Clear
10:53 AM 79.0 °F - 71.1 °F 77% 30.23 in 10.0 mi South 5.8 mph - N/A   Clear
11:53 AM 81.0 °F 84.4 °F 70.0 °F 69% 30.22 in 10.0 mi SSW 5.8 mph - N/A   Clear
12:53 PM 86.0 °F 92.2 °F 72.0 °F 63% 30.20 in 10.0 mi SSW 9.2 mph - N/A   Clear
1:53 PM 87.1 °F 92.8 °F 71.1 °F 59% 30.19 in 10.0 mi South 10.4 mph - N/A   Clear
2:53 PM 89.1 °F 93.7 °F 69.1 °F 52% 30.17 in 10.0 mi West 4.6 mph - N/A   Clear
3:53 PM 90.0 °F 93.6 °F 68.0 °F 48% 30.14 in 10.0 mi WSW 9.2 mph - N/A   Partly Cloudy
4:53 PM 90.0 °F 95.4 °F 70.0 °F 52% 30.11 in 10.0 mi South 3.5 mph - N/A   Partly Cloudy
5:53 PM 89.1 °F 92.9 °F 68.0 °F 50% 30.10 in 10.0 mi SSW 9.2 mph - N/A   Partly Cloudy
6:53 PM 87.1 °F 92.0 °F 70.0 °F 57% 30.09 in 10.0 mi WSW 4.6 mph - N/A   Partly Cloudy
7:53 PM 80.1 °F 83.8 °F 72.0 °F 76% 30.09 in 10.0 mi Calm Calm - N/A   Partly Cloudy
8:53 PM 73.9 °F - 71.1 °F 91% 30.11 in 10.0 mi Calm Calm - N/A   Clear
9:53 PM 73.0 °F - 70.0 °F 90% 30.11 in 10.0 mi Calm Calm - N/A   Clear
10:53 PM 72.0 °F - 69.1 °F 91% 30.12 in 10.0 mi Calm Calm - N/A   Clear
11:53 PM 71.1 °F - 69.1 °F 93% 30.12 in 8.0 mi Calm Calm - N/A   Clear